This demonstration page uses our WeatherBlox Daily Observations layout. Learn more.

Left ArrowRight Arrow

Hourly Observations for May 31, 2018

Temp ( °F °C ) Dew Point ( °F °C ) Humidity (%) Winds ( mph kmh ) Pressure ( in mb ) Visibility ( mi km ) Precip ( " mm )
12:53 am 00:53 Mostly Cloudy 65 18.3 46 7.8 51 51 SW 12 19 29.72 1007 10 16 0.00 0.00
1:53 am 01:53 Mostly Cloudy 63 17.2 43 6.1 48 48 S 12 19 29.74 1007 10 16 0.00 0.00
2:53 am 02:53 Mostly Clear 61 16.1 43 6.1 52 52 S 15 24 29.75 1008 10 16 0.00 0.00
3:53 am 03:53 Mostly Clear 59 15 43 6.1 56 56 SSE 13 20 29.76 1008 10 16 0.00 0.00
4:53 am 04:53 Clear 57 13.9 44 6.7 62 62 SE 12 19 29.78 1008 10 16 0.00 0.00
5:53 am 05:53 Mostly Sunny 56 13.3 44 6.7 65 65 S 10 17 29.80 1009 10 16 0.00 0.00
6:53 am 06:53 Mostly Cloudy 56 13.3 44 6.7 65 65 S 10 17 29.82 1010 10 16 0.00 0.00
7:53 am 07:53 Cloudy 57 13.9 44 6.7 62 62 S 12 19 29.84 1011 10 16 0.00 0.00
8:53 am 08:53 Cloudy 58 14.4 44 6.7 60 60 S 10 17 29.86 1011 10 16 0.00 0.00
9:53 am 09:53 Cloudy 60 15.6 45 7.2 58 58 S 8 13 29.87 1011 10 16 0.00 0.00
10:53 am 10:53 Mostly Cloudy 64 17.8 44 6.7 48 48 S 9 15 29.87 1012 10 16 0.00 0.00
11:53 am 11:53 Sunny 65 18.3 44 6.7 47 47 S 10 17 29.88 1012 10 16 0.00 0.00
12:53 pm 12:53 Mostly Sunny 69 20.6 43 6.1 39 39 undefined N/A 29.88 1012 10 16 0.00 0.00
1:53 pm 13:53 Cloudy 69 20.6 44 6.7 41 41 SSE 7 11 29.88 1012 10 16 0.00 0.00
2:53 pm 14:53 Mostly Sunny 70 21.1 44 6.7 39 39 SSE 10 17 29.88 1012 10 16 0.00 0.00
3:53 pm 15:53 Mostly Sunny 70 21.1 44 6.7 39 39 undefined N/A 29.88 1012 10 16 0.00 0.00
4:53 pm 16:53 Sunny 73 22.8 44 6.7 35 35 SSE 12 19 29.88 1012 10 16 0.00 0.00
5:53 pm 17:53 Mostly Sunny 72 22.2 44 6.7 37 37 VRB 3 6 29.88 1012 10 16 0.00 0.00
6:53 pm 18:53 Sunny 71 21.7 44 6.7 38 38 S 7 11 29.89 1012 10 16 0.00 0.00
7:53 pm 19:53 Sunny 70 21.1 45 7.2 41 41 SSE 6 9 29.90 1013 10 16 0.00 0.00
8:53 pm 20:53 Clear 66 18.9 48 8.9 52 52 Calm 29.92 1013 10 16 0.00 0.00
9:53 pm 21:53 Clear 65 18.3 48 8.9 54 54 Calm 29.95 1014 10 16 0.00 0.00
10:53 pm 22:53 Cloudy 64 17.8 49 9.4 58 58 Calm 29.97 1015 10 16 0.00 0.00
11:53 pm 23:53 Cloudy 64 17.8 46 7.8 52 52 NW 5 7 29.98 1015 10 16 0.00 0.00

Powered by AerisWeather